Find Starlink 37013

NORAD ID: 68162 Int'l Des: 2026-049 Owner: SPXS Country: US Constellation: starlink operational
LEOCIRCULARRETROGRADE

实时位置

正在加载3D地球...

关于 Starlink 37013

正在加载描述...

即将过境

Passes for default location (London). Set your location on the main map for personalized predictions.

高度历史

Loading altitude history...

两行轨道根数

1 68162U 26049W 26119.83335647 .00057783 00000-0 10578-2 0 9995
2 68162 97.2849 141.6070 0000851 72.6107 132.1024 15.49150034 6001
Epoch: Apr 29, 2026 • Age: 5 hours

当前状态

高度 422.7 km
速度 7.66 km/s
星下点 -3.90°S, 95.24°W
发射日期 Mar 13, 2026
运行时间 0.1 years
类型 internet

技术详情

分类 Payload
质量 575.00 kg
干质量 530.00 kg
总质量 575.00 kg
长度 0.30 m
直径 4.10 m
跨度 29.00 m
形状 Box + pan
制造商 SPXS
平台类型 Starlink V2MO
阶段状态 In Orbit
所有者/国家 SPXS/US

Most Searched